Location: Kitchener
(43.4500°N, 80.5000°W)
Time: 23:16:19
(UTC-04:00)

N. Korean satellite - Visible Passes

Search period start: 23 September 2017 00:00
Search period end: 03 October 2017 00:00
Orbit: 461 x 516 km, 97.2° (Epoch: 23 September)

Date Brightness Start Highest point End Pass type
(mag) Time Alt. Az. Time Alt. Az. Time Alt. Az.
23 Sep 7.9 19:46:19 10° S 19:49:57 47° W 19:53:34 10° NNW visible
25 Sep 10.0 20:35:27 10° WSW 20:37:17 13° W 20:39:08 10° WNW visible
26 Sep 9.3 20:10:50 10° SSW 20:13:54 24° W 20:16:58 10° NW visible
27 Sep 7.9 19:47:01 10° S 19:50:36 45° W 19:54:10 10° NNW visible
29 Sep 10.0 20:36:13 10° WSW 20:37:55 13° W 20:39:37 10° WNW visible
30 Sep 9.3 20:11:31 10° SSW 20:14:31 23° W 20:17:31 10° NW visible
01 Oct 8.0 19:47:39 10° S 19:51:12 44° W 19:54:43 10° NNW visible
02 Oct 6.6 19:24:15 10° SSE 19:27:56 89° WSW 19:31:36 10° NNW visible
